{"data":{"norad_id":54161,"epoch":"2026-09-20T13:11:03.034752Z","epoch_age_seconds":84951,"freshness":"FRESH","line1":"1 54161U 22141E   26263.54934068  .00000642  00000+0  32448-4 0  9991","line2":"2 54161  53.1597 207.5454 0001247  89.5797 270.5348 15.31704873215292","mean_motion":15.31704873,"eccentricity":0.0001247,"inclination_deg":53.1597,"raan_deg":207.5454,"arg_perigee_deg":89.5797,"mean_anomaly_deg":270.5348,"bstar":3.2448e-5,"rev_number":21529,"period_min":94.012888865439,"perigee_km":469.87141595483,"apogee_km":471.57952225463,"semimajor_km":6848.8624691047,"source":"CELESTRAK","updated_at":"2026-09-21T09:00:33.087909Z"}}